Change the Weather History Date:

Thursday, May 16, 2013

  Actual Average (KSLG) Record (KSLG)
Temperature  
Mean Temperature 66 °F -  
Max Temperature 71 °F 73 °F 87 °F (2001)
Min Temperature 62 °F 54 °F 35 °F (2014)
Cooling Degree Days 2    
Growing Degree Days 16 (Base 50)    
Moisture  
Dew Point 65 °F    
Average Humidity 97    
Maximum Humidity 100    
Minimum Humidity 78    
Precipitation  
Precipitation 0.00 in - - ()
Sea Level Pressure  
Sea Level Pressure 29.87 in    
Wind  
Wind Speed 2 mph (ESE)    
Max Wind Speed 8 mph    
Max Gust Speed -    
Visibility 8 miles    
Events Rain    
Averages and records for this station are not official NWS values.
T = Trace of Precipitation, MM = Missing Value Source: NWS Daily Summary

Daily Weather History Graph

Daily Weather History Graph

Search for Another Location

Airport or City:

Trip Planner

Search our weather history database for the weather conditions in past years. The results will help you decide how hot, cold, wet, or windy it might be!

Date:

Astronomy

May. 16, 2013 Rise Set
Actual Time 6:10 AM CDT 8:20 PM CDT
Civil Twilight 5:41 AM CDT 8:49 PM CDT
Nautical Twilight 5:06 AM CDT 9:24 PM CDT
Astronomical Twilight 4:28 AM CDT 10:03 PM CDT
Moon 11:41 AM CDT (5/16) 12:44 AM CDT (5/16)
Length of Visible Light 15h 07m
Length of Day
14h 09m
Waxing Crescent, 36% of the Moon is Illuminated
May 16
Waxing Crescent
May 17
First Quarter
May 24
Full
May 31
Last Quarter
Jun 8
New

Hourly Weather History & Observations

Time (CDT) Temp. Dew Point Humidity Pressure Visibility Wind Dir Wind Speed Gust Speed Precip Events Conditions
12:15 AM 66.2 °F 66.2 °F 100% 29.86 in 7.0 mi East 4.6 mph - N/A   Clear
12:35 AM 66.2 °F 66.2 °F 100% 29.87 in 10.0 mi Calm Calm - N/A   Clear
12:55 AM 66.2 °F 66.2 °F 100% 29.87 in 10.0 mi SSE 4.6 mph - N/A   Clear
1:15 AM 64.4 °F 64.4 °F 100% 29.87 in 10.0 mi Calm Calm - N/A   Clear
1:35 AM 64.4 °F 64.4 °F 100% 29.86 in 7.0 mi Calm Calm - N/A   Clear
1:55 AM 62.6 °F 62.6 °F 100% 29.86 in 5.0 mi Calm Calm - N/A   Clear
2:15 AM 62.6 °F 62.6 °F 100% 29.86 in 4.0 mi Calm Calm - N/A   Clear
2:35 AM 62.6 °F 62.6 °F 100% 29.86 in 4.0 mi Calm Calm - N/A   Clear
2:55 AM 62.6 °F 62.6 °F 100% 29.85 in 4.0 mi Calm Calm - N/A   Scattered Clouds
3:15 AM 64.4 °F 64.4 °F 100% 29.86 in 7.0 mi ESE 3.5 mph - N/A   Mostly Cloudy
3:35 AM 64.4 °F 64.4 °F 100% 29.86 in 10.0 mi Calm Calm - N/A   Overcast
3:55 AM 64.4 °F 64.4 °F 100% 29.87 in 7.0 mi SSW 3.5 mph - N/A   Overcast
4:15 AM 64.4 °F 64.4 °F 100% 29.87 in 10.0 mi Calm Calm - N/A   Overcast
4:35 AM 64.4 °F 64.4 °F 100% 29.87 in 10.0 mi Calm Calm - N/A   Overcast
4:55 AM 64.4 °F 64.4 °F 100% 29.87 in 10.0 mi Calm Calm - N/A   Overcast
5:15 AM 64.4 °F 64.4 °F 100% 29.87 in 10.0 mi ENE 3.5 mph - N/A   Overcast
5:35 AM 64.4 °F 64.4 °F 100% 29.86 in 7.0 mi ENE 3.5 mph - N/A   Overcast
5:55 AM 64.4 °F 64.4 °F 100% 29.86 in 7.0 mi East 4.6 mph - N/A   Overcast
6:15 AM 64.4 °F 64.4 °F 100% 29.86 in 7.0 mi East 4.6 mph - N/A   Overcast
6:35 AM 64.4 °F 64.4 °F 100% 29.87 in 7.0 mi East 3.5 mph - N/A   Overcast
6:55 AM 64.4 °F 64.4 °F 100% 29.88 in 7.0 mi Calm Calm - N/A   Overcast
7:15 AM 64.4 °F 64.4 °F 100% 29.88 in 10.0 mi Calm Calm - N/A   Overcast
7:35 AM 64.4 °F 64.4 °F 100% 29.89 in 10.0 mi East 3.5 mph - N/A   Overcast
7:55 AM 64.4 °F 64.4 °F 100% 29.90 in 7.0 mi Calm Calm - N/A   Overcast
8:15 AM 64.4 °F 64.4 °F 100% 29.90 in 7.0 mi Calm Calm - N/A   Overcast
8:35 AM 64.4 °F 64.4 °F 100% 29.90 in 7.0 mi Calm Calm - N/A   Overcast
8:55 AM 64.4 °F 64.4 °F 100% 29.90 in 7.0 mi Calm Calm - N/A   Overcast
9:15 AM 64.4 °F 64.4 °F 100% 29.91 in 7.0 mi Calm Calm - N/A   Overcast
9:35 AM 64.4 °F 64.4 °F 100% 29.91 in 10.0 mi SE 3.5 mph - N/A   Overcast
9:55 AM 64.4 °F 64.4 °F 100% 29.91 in 10.0 mi SE 4.6 mph - N/A   Overcast
10:15 AM 64.4 °F 64.4 °F 100% 29.91 in 10.0 mi SE 4.6 mph - N/A   Overcast
10:35 AM 64.4 °F 64.4 °F 100% 29.91 in 10.0 mi SSE 5.8 mph - N/A   Overcast
10:55 AM 64.4 °F 64.4 °F 100% 29.91 in 10.0 mi SSE 5.8 mph - N/A   Overcast
11:15 AM 64.4 °F 64.4 °F 100% 29.90 in 7.0 mi SSE 5.8 mph - N/A   Overcast
11:35 AM 64.4 °F 64.4 °F 100% 29.90 in 3.0 mi SE 3.5 mph - N/A   Overcast
11:55 AM 64.4 °F 64.4 °F 100% 29.90 in 2.5 mi SSE 3.5 mph - N/A   Overcast
12:15 PM 64.4 °F 64.4 °F 100% 29.90 in 1.5 mi Calm Calm - N/A   Drizzle
12:35 PM 64.4 °F 64.4 °F 100% 29.90 in 1.2 mi Calm Calm - N/A Rain Rain
12:55 PM 64.4 °F 64.4 °F 100% 29.89 in 1.8 mi Calm Calm - N/A   Drizzle
1:15 PM 66.2 °F 66.2 °F 100% 29.89 in 5.0 mi Calm Calm - N/A   Overcast
1:35 PM 69.8 °F 69.8 °F 100% 29.89 in 7.0 mi Calm Calm - N/A   Overcast
1:55 PM 69.8 °F 69.8 °F 100% 29.88 in 10.0 mi ESE 3.5 mph - N/A   Overcast
2:15 PM 68.0 °F 68.0 °F 100% 29.88 in 1.8 mi SE 4.6 mph - N/A Rain Heavy Rain
2:35 PM 68.0 °F 68.0 °F 100% 29.88 in 3.0 mi Calm Calm - N/A Rain Rain
2:55 PM 68.0 °F 68.0 °F 100% 29.88 in 10.0 mi Calm Calm - N/A   Overcast
3:15 PM 69.8 °F 68.0 °F 94% 29.87 in 10.0 mi Calm Calm - N/A   Overcast
3:35 PM 69.8 °F 64.4 °F 83% 29.87 in 10.0 mi Calm Calm - N/A   Overcast
3:55 PM 69.8 °F 64.4 °F 83% 29.86 in 10.0 mi Calm Calm - N/A   Mostly Cloudy
4:15 PM 71.6 °F 64.4 °F 78% 29.86 in 10.0 mi East 8.1 mph - N/A   Mostly Cloudy
4:35 PM 69.8 °F 64.4 °F 83% 29.86 in 10.0 mi East 8.1 mph - N/A   Mostly Cloudy
4:55 PM 68.0 °F 68.0 °F 100% 29.86 in 10.0 mi Calm Calm - N/A   Scattered Clouds
5:15 PM 69.8 °F 68.0 °F 94% 29.85 in 10.0 mi ESE 4.6 mph - N/A   Scattered Clouds
5:35 PM 69.8 °F 64.4 °F 83% 29.84 in 10.0 mi ESE 5.8 mph - N/A   Scattered Clouds
5:55 PM 69.8 °F 64.4 °F 83% 29.84 in 10.0 mi East 4.6 mph - N/A   Light Drizzle
6:15 PM 71.6 °F 64.4 °F 78% 29.84 in 10.0 mi East 4.6 mph - N/A   Scattered Clouds
6:35 PM 69.8 °F 64.4 °F 83% 29.84 in 10.0 mi East 4.6 mph - N/A   Mostly Cloudy
6:55 PM 69.8 °F 64.4 °F 83% 29.84 in 10.0 mi East 3.5 mph - N/A   Mostly Cloudy
7:15 PM 69.8 °F 64.4 °F 83% 29.84 in 10.0 mi East 4.6 mph - N/A   Scattered Clouds
7:35 PM 69.8 °F 64.4 °F 83% 29.84 in 10.0 mi East 3.5 mph - N/A   Clear
7:55 PM 68.0 °F 68.0 °F 100% 29.85 in 10.0 mi Calm Calm - N/A   Scattered Clouds
8:15 PM 68.0 °F 68.0 °F 100% 29.85 in 10.0 mi Calm Calm - N/A   Mostly Cloudy
8:35 PM 68.0 °F 68.0 °F 100% 29.85 in 10.0 mi Calm Calm - N/A   Mostly Cloudy
8:55 PM 66.2 °F 66.2 °F 100% 29.85 in 10.0 mi Calm Calm - N/A   Scattered Clouds
9:15 PM 64.4 °F 64.4 °F 100% 29.86 in 10.0 mi Calm Calm - N/A   Scattered Clouds
9:35 PM 64.4 °F 64.4 °F 100% 29.86 in 10.0 mi Calm Calm - N/A   Clear
9:55 PM 64.4 °F 64.4 °F 100% 29.87 in 10.0 mi Calm Calm - N/A   Clear
10:15 PM 64.4 °F 64.4 °F 100% 29.88 in 10.0 mi Calm Calm - N/A   Clear
10:35 PM 64.4 °F 64.4 °F 100% 29.88 in 10.0 mi Calm Calm - N/A   Mostly Cloudy
10:55 PM 64.4 °F 64.4 °F 100% 29.88 in 10.0 mi Calm Calm - N/A   Mostly Cloudy
11:15 PM 62.6 °F 62.6 °F 100% 29.88 in 7.0 mi Calm Calm - N/A   Scattered Clouds
11:35 PM 62.6 °F 62.6 °F 100% 29.88 in 7.0 mi Calm Calm - N/A   Clear
11:55 PM 62.6 °F 62.6 °F 100% 29.89 in 7.0 mi Calm Calm - N/A   Clear